Location: Calgary
(51.0833°N, 114.0833°W)
Time: 11:23:58
(UTC-07:00)

Tiangong 1 - Visible Passes

Search period start: 22 November 2017 00:00
Search period end: 02 December 2017 00:00
Orbit: 284 x 308 km, 42.8° (Epoch: 22 November)

Date Brightness Start Highest point End Pass type
(mag) Time Alt. Az. Time Alt. Az. Time Alt. Az.
29 Nov 3.4 17:42:56 10° S 17:43:26 10° SSE 17:43:56 10° SSE visible
30 Nov 3.3 17:47:43 10° SSW 17:48:57 13° S 17:50:10 10° SE visible
01 Dec 3.3 17:52:56 10° SSW 17:54:20 14° S 17:55:45 10° SE visible
